When you browse on this site, cookies collect data to enhance your experience and personalize the content and advertising you see.
Visit our Privacy Policy to learn more. By continuing to use the site, you agree to this use of cookies and data.
  • In Lithuania
  • List of Countries
  • For 7 days
  • Water Temperature
  • Satellite Maps
  • Weather Map
  • Weather Widgets
  • user-avatar
    Login

    Hourly Weather Korablino

    Today, 22 March, Friday

    Time Temperature Precipitation Wind Pressure Humidity
    00:00 -3°C° 0 mm 2 mps 749 mmHg 94%
    01:00 -3°C° 0 mm 2 mps 749 mmHg 93%
    02:00 -3°C° 0 mm 2 mps 749 mmHg 93%
    03:00 -4°C° 0 mm 2 mps 749 mmHg 93%
    04:00 -4°C° 0 mm 2 mps 748 mmHg 92%
    05:00 -4°C° 0 mm 2 mps 748 mmHg 92%
    06:00 -5°C° 0 mm 3 mps 747 mmHg 91%
    07:00 -4°C° 0 mm 3 mps 746 mmHg 90%
    08:00 -3°C° 0 mm 4 mps 746 mmHg 89%
    09:00 -2°C° 0 mm 5 mps 745 mmHg 88%
    10:00 -2°C° 0.4 mm 6 mps 743 mmHg 91%
    11:00 -2°C° 0.4 mm 6 mps 742 mmHg 93%
    12:00 -1°C° 0.4 mm 7 mps 741 mmHg 95%
    13:00 -1°C° 0.9 mm 6 mps 741 mmHg 96%
    14:00 -2°C° 0.9 mm 6 mps 740 mmHg 97%
    15:00 0°C° 0 mm 3 mps 739 mmHg 99%
    16:00 -1°C° 0.5 mm 4 mps 740 mmHg 96%
    17:00 -2°C° 0.5 mm 6 mps 740 mmHg 93%
    18:00 -1°C° 0.5 mm 7 mps 740 mmHg 89%
    19:00 -2°C° 0.3 mm 7 mps 740 mmHg 88%
    20:00 -3°C° 0.3 mm 7 mps 741 mmHg 86%
    21:00 -3°C° 0.3 mm 7 mps 741 mmHg 85%
    22:00 -4°C° 0.1 mm 7 mps 741 mmHg 86%
    23:00 -4°C° 0.1 mm 7 mps 741 mmHg 87%

    Tomorrow, 23 March, Saturday

    Time Temperature Precipitation Wind Pressure Humidity
    00:00 -6°C° 0.1 mm 7 mps 741 mmHg 88%
    01:00 -6°C° 0.1 mm 7 mps 741 mmHg 89%
    02:00 -4°C° 0.1 mm 7 mps 741 mmHg 89%
    03:00 -4°C° 0.1 mm 7 mps 742 mmHg 90%
    04:00 -4°C° 0.1 mm 6 mps 742 mmHg 91%
    05:00 -4°C° 0.1 mm 6 mps 743 mmHg 92%
    06:00 -3°C° 0.1 mm 6 mps 743 mmHg 93%
    07:00 -3°C° 0.1 mm 6 mps 744 mmHg 92%
    08:00 -3°C° 0.1 mm 6 mps 745 mmHg 91%
    09:00 -3°C° 0.1 mm 6 mps 746 mmHg 90%
    10:00 -3°C° 0 mm 6 mps 747 mmHg 89%
    11:00 -3°C° 0 mm 6 mps 747 mmHg 88%
    12:00 -3°C° 0 mm 6 mps 748 mmHg 87%
    13:00 -3°C° 0.1 mm 6 mps 748 mmHg 87%
    14:00 -2°C° 0.1 mm 5 mps 749 mmHg 88%
    15:00 -2°C° 0.1 mm 5 mps 749 mmHg 88%
    16:00 -2°C° 0 mm 4 mps 749 mmHg 88%
    17:00 -2°C° 0 mm 4 mps 749 mmHg 89%
    18:00 -3°C° 0 mm 4 mps 750 mmHg 89%
    19:00 -2°C° 0 mm 3 mps 750 mmHg 90%
    20:00 -4°C° 0 mm 3 mps 750 mmHg 91%
    21:00 -4°C° 0 mm 3 mps 750 mmHg 93%
    22:00 -3°C° 0 mm 2 mps 750 mmHg 92%
    23:00 -3°C° 0 mm 2 mps 750 mmHg 92%

    Day after tomorrow, 24 March, Sunday

    Time Temperature Precipitation Wind Pressure Humidity
    00:00 -2°C° 0 mm 2 mps 750 mmHg 92%
    01:00 -3°C° 0 mm 2 mps 750 mmHg 92%
    02:00 -3°C° 0 mm 2 mps 749 mmHg 92%
    03:00 -3°C° 0 mm 2 mps 749 mmHg 91%
    04:00 -4°C° 0 mm 2 mps 749 mmHg 91%
    05:00 -4°C° 0 mm 2 mps 748 mmHg 91%
    06:00 -3°C° 0 mm 1 mps 748 mmHg 91%
    07:00 -4°C° 0 mm 2 mps 748 mmHg 90%
    08:00 -3°C° 0 mm 2 mps 747 mmHg 90%
    09:00 -3°C° 0 mm 2 mps 747 mmHg 90%
    10:00 -2°C° 0 mm 3 mps 747 mmHg 90%
    11:00 -2°C° 0 mm 3 mps 746 mmHg 91%
    12:00 -2°C° 0 mm 4 mps 746 mmHg 91%
    13:00 -2°C° 0.2 mm 4 mps 745 mmHg 93%
    14:00 -2°C° 0.2 mm 4 mps 745 mmHg 94%
    15:00 -2°C° 0.2 mm 5 mps 744 mmHg 96%
    16:00 -1°C° 0.1 mm 5 mps 744 mmHg 95%
    17:00 -1°C° 0.1 mm 4 mps 744 mmHg 94%
    18:00 -1°C° 0.1 mm 4 mps 743 mmHg 94%
    19:00 -1°C° 0 mm 4 mps 743 mmHg 94%
    20:00 -1°C° 0 mm 4 mps 744 mmHg 93%
    21:00 -1°C° 0 mm 3 mps 744 mmHg 93%
    22:00 -1°C° 0 mm 3 mps 743 mmHg 92%
    23:00 -2°C° 0 mm 3 mps 743 mmHg 91%

    25 March, Monday

    Time Temperature Precipitation Wind Pressure Humidity
    00:00 -4°C° 0 mm 3 mps 743 mmHg 90%
    01:00 -4°C° 0 mm 3 mps 743 mmHg 90%
    02:00 -4°C° 0 mm 3 mps 743 mmHg 89%
    03:00 -4°C° 0 mm 3 mps 743 mmHg 89%
    04:00 -5°C° 0 mm 3 mps 743 mmHg 88%
    05:00 -5°C° 0 mm 3 mps 743 mmHg 88%
    06:00 -5°C° 0 mm 3 mps 743 mmHg 88%
    07:00 -3°C° 0 mm 2 mps 743 mmHg 87%
    08:00 -3°C° 0 mm 2 mps 743 mmHg 87%
    09:00 -2°C° 0 mm 2 mps 743 mmHg 86%
    10:00 -1°C° 0 mm 2 mps 743 mmHg 90%
    11:00 -1°C° 0 mm 2 mps 743 mmHg 93%
    12:00 0°C° 0 mm 3 mps 743 mmHg 97%
    13:00 0°C° 0 mm 3 mps 743 mmHg 97%
    14:00 0°C° 0 mm 3 mps 743 mmHg 98%
    15:00 +1°C° 0 mm 3 mps 743 mmHg 98%
    16:00 0°C° 0 mm 3 mps 743 mmHg 93%
    17:00 0°C° 0 mm 3 mps 743 mmHg 89%
    18:00 0°C° 0 mm 3 mps 743 mmHg 84%
    19:00 -1°C° 0 mm 3 mps 743 mmHg 84%
    20:00 -1°C° 0 mm 3 mps 743 mmHg 83%
    21:00 -2°C° 0 mm 3 mps 743 mmHg 82%
    22:00 -2°C° 0 mm 3 mps 744 mmHg 82%
    23:00 -2°C° 0 mm 2 mps 744 mmHg 82%

    26 March, Tuesday

    Time Temperature Precipitation Wind Pressure Humidity
    00:00 -2°C° 0 mm 2 mps 744 mmHg 82%
    01:00 -2°C° 0 mm 2 mps 744 mmHg 82%
    02:00 -3°C° 0 mm 2 mps 744 mmHg 82%
    03:00 -3°C° 0 mm 2 mps 744 mmHg 82%
    04:00 -3°C° 0 mm 2 mps 744 mmHg 83%
    05:00 -3°C° 0 mm 2 mps 744 mmHg 83%
    06:00 -3°C° 0 mm 2 mps 744 mmHg 84%
    07:00 -4°C° 0 mm 3 mps 744 mmHg 85%
    08:00 -2°C° 0 mm 3 mps 744 mmHg 86%
    09:00 -1°C° 0 mm 3 mps 744 mmHg 87%
    10:00 -1°C° 0.3 mm 3 mps 744 mmHg 90%
    11:00 -1°C° 0.3 mm 3 mps 744 mmHg 94%
    12:00 -1°C° 0.3 mm 4 mps 744 mmHg 98%
    13:00 0°C° 0.1 mm 3 mps 743 mmHg 96%
    14:00 +1°C° 0.1 mm 3 mps 743 mmHg 95%
    15:00 +1°C° 0.1 mm 3 mps 743 mmHg 93%
    16:00 +1°C° 0.1 mm 3 mps 742 mmHg 90%
    17:00 +1°C° 0.1 mm 3 mps 742 mmHg 87%
    18:00 0°C° 0.1 mm 3 mps 742 mmHg 84%
    19:00 -1°C° 0 mm 4 mps 742 mmHg 84%
    20:00 -1°C° 0 mm 4 mps 742 mmHg 84%
    21:00 -2°C° 0 mm 4 mps 742 mmHg 84%
    22:00 -1°C° 0.3 mm 4 mps 742 mmHg 86%
    23:00 -1°C° 0.3 mm 4 mps 742 mmHg 88%

    27 March, Wednesday

    Time Temperature Precipitation Wind Pressure Humidity
    00:00 -1°C° 0.3 mm 5 mps 742 mmHg 90%
    01:00 -2°C° 0.4 mm 4 mps 742 mmHg 90%
    02:00 -3°C° 0.4 mm 4 mps 742 mmHg 89%
    03:00 -3°C° 0.4 mm 4 mps 742 mmHg 89%
    04:00 -4°C° 0 mm 4 mps 742 mmHg 89%
    05:00 -5°C° 0 mm 4 mps 742 mmHg 89%
    06:00 -5°C° 0 mm 3 mps 742 mmHg 90%
    07:00 -4°C° 0 mm 4 mps 743 mmHg 89%
    08:00 -4°C° 0 mm 4 mps 743 mmHg 87%
    09:00 -3°C° 0 mm 4 mps 743 mmHg 86%
    10:00 -3°C° 0 mm 4 mps 744 mmHg 82%
    11:00 -2°C° 0 mm 5 mps 744 mmHg 77%
    12:00 -1°C° 0 mm 5 mps 744 mmHg 73%
    13:00 -1°C° 0 mm 5 mps 745 mmHg 71%
    14:00 -2°C° 0 mm 6 mps 745 mmHg 68%
    15:00 -2°C° 0 mm 6 mps 746 mmHg 66%
    16:00 -1°C° 0 mm 5 mps 746 mmHg 67%
    17:00 -1°C° 0 mm 5 mps 746 mmHg 67%
    18:00 -2°C° 0 mm 5 mps 747 mmHg 67%
    19:00 -2°C° 0 mm 5 mps 747 mmHg 69%
    20:00 -4°C° 0 mm 5 mps 748 mmHg 71%
    21:00 -4°C° 0 mm 5 mps 748 mmHg 73%
    22:00 -5°C° 0 mm 5 mps 749 mmHg 74%
    23:00 -5°C° 0 mm 5 mps 749 mmHg 76%
    Show more